Flag for U.S.A. Weather past 2 weeks in Green Bay, Wisconsin, U.S.A.

Now
72 °F

Sunny.


Feels Like: 77 °F
Forecast: 48 / 73 °F
Wind: 13 mph from Southeast

Location: Austin Straubel International Airport

Current Time: Jun 3, 2015 at 4:53:00 PM

Latest Report: Jun 3, 2015 at 3:53 PM


Visibility: 10 mi

Pressure: 29.98 "Hg

Humidity: 44%

Dew point: 49 °F

Location of Green BayLocation

Historic Weather in Green Bay — Graph

°F

Green Bay temperature yesterday

Maximum temperature yesterday: 72 °F (at 2:53 PM)
Minimum temperature yesterday: 41 °F (at 4:53 AM)
Average temperature yesterday: 58 °F

Past Weeks' High & Low Weather Summary

 TemperatureHumidityPressure
High83 °F (May 28, 2:53 PM)97% (May 24, 9:53 PM)30.35 "Hg (May 24, 9:53 PM)
Low33 °F (May 20, 4:53 AM)22% (May 21, 3:53 PM)29.62 "Hg (May 26, 8:53 PM)
Average60 °F65%30.08 "Hg
* Reported May 19 3:53 PM — Jun 3 3:53 PM, Green Bay, Weather by CustomWeather, © 2015

Note: Actual official high and low records may vary slightly from our data, if they occured in-between our weather recording intervals... More about our weather records

Advertising

Green Bay weather history for previous 24 hours

 ConditionsComfort  
Time TempWeatherWind HumidityBarometerVisibility
3:53 PM
Wed, Jun 3
72 °FSunny.13 mph44%29.98 "Hg10 mi
2:53 PM74 °FSunny.16 mph38%29.99 "Hg10 mi
1:53 PM75 °FSunny.15 mph42%29.98 "Hg10 mi
12:53 PM75 °FSunny.16 mph42%30.00 "Hg10 mi
11:53 AM74 °FPassing clouds.16 mph46%30.03 "Hg10 mi
10:53 AM72 °FSunny.12 mph52%30.03 "Hg10 mi
9:53 AM69 °FSunny.8 mph59%30.04 "Hg10 mi
8:53 AM65 °FSunny.12 mph66%30.06 "Hg10 mi
7:53 AM59 °FSunny.9 mph72%30.07 "Hg10 mi
6:53 AM54 °FSunny.9 mph77%30.06 "Hg10 mi
5:53 AM51 °FClear.7 mph83%30.06 "Hg8 mi
4:53 AM49 °FClear.7 mph84%30.06 "Hg9 mi
3:53 AM50 °FClear.6 mph80%30.06 "Hg10 mi
2:53 AM48 °FClear.No wind80%30.06 "Hg10 mi
1:53 AM49 °FClear.No wind77%30.06 "Hg10 mi
12:53 AM52 °FClear.3 mph64%30.07 "Hg10 mi
11:53 PM
Tue, Jun 2
51 °FClear.6 mph63%30.07 "Hg10 mi
10:53 PM53 °FClear.5 mph61%30.07 "Hg10 mi
9:53 PM56 °FClear.5 mph62%30.08 "Hg10 mi
8:53 PM57 °FSunny.6 mph55%30.07 "Hg10 mi
7:53 PM63 °FSunny.7 mph40%30.07 "Hg10 mi
6:53 PM67 °FSunny.15 mph31%30.08 "Hg10 mi
5:53 PM69 °FSunny.14 mph32%30.09 "Hg10 mi
4:53 PM71 °FSunny.12 mph34%30.09 "Hg10 mi
Weather by CustomWeather, © 2015

See weather overviewHow to use our weather pages